Simultaneous Nadir Overpasses (SNOs) Predictions

Prediction of SNOs between AQUA and METOP-B Satellite Orbit:

Table of predicted SNOs for the next 14.0 days since TLE Epoch: 8/21/2021
Index Date (AQUA) Time (AQUA) Lat,Lon (AQUA) SZA (AQUA ) Date (METOP-B) Time (METOP-B) Lat,Lon (METOP-B) SZA (METOP-B ) Distance(km) Time Diff (sec)
1 08/23/2021 18:54:38 -73.71, 70.78 117.44 08/23/2021 18:53:26 -73.73, 70.83 117.42 2.26 72
2 08/23/2021 19:44:07 73.79,-121.76 62.66 08/23/2021 19:44:05 73.79,-121.71 62.65 1.65 2
3 08/23/2021 20:33:34 -73.87, 45.73 117.26 08/23/2021 20:34:45 -73.86, 45.79 117.27 2.18 71
4 08/26/2021 14:28:52 -73.69, 137.27 116.50 08/26/2021 14:27:49 -73.71, 137.20 116.47 3.44 63
5 08/26/2021 15:18:21 73.78, -55.28 63.61 08/26/2021 15:18:28 73.77, -55.35 63.60 2.37 7
6 08/26/2021 16:07:52 -74.05, 111.75 116.09 08/26/2021 16:09:03 -74.09, 112.76 116.10 31.12 71
7 08/29/2021 10:03:07 -73.73,-156.36 115.48 08/29/2021 10:02:11 -73.75,-156.32 115.45 2.38 56
8 08/29/2021 10:52:35 73.77, 11.18 64.59 08/29/2021 10:52:50 73.79, 11.13 64.61 3.21 15
9 08/29/2021 11:42:13 -74.39, 177.39 114.74 08/29/2021 11:43:20 -74.36, 179.87 114.85 74.29 67
10 09/01/2021 05:37:20 -73.72, -89.90 114.48 09/01/2021 05:36:33 -73.72, -89.96 114.46 1.89 47
11 09/01/2021 06:26:49 73.82, 77.52 65.64 09/01/2021 06:27:11 73.82, 77.60 65.64 2.51 22
12 09/04/2021 01:11:35 -73.77, -23.57 113.40 09/04/2021 01:10:55 -73.75, -23.49 113.42 3.22 40
13 09/04/2021 02:01:03 73.82, 143.95 66.67 09/04/2021 02:01:34 73.79, 143.94 66.64 3.66 31



Historial Predications of SNOs between AQUA and METOP-B
